Location: Black Creek
(40.9000°S, 175.5500°E)
Time: 19:36:16
(UTC+00:00)

Cosmos 1943 Rocket - Pass Details

Date: 04 August 2024
Orbit: 813 x 841 km, 71.0° (Epoch: 17 September)

Event Time Altitude Azimuth Distance (km) Brightness Sun altitude
Rises 18:07:30 0° 5° (N) 3,334 5.5 -14.0°
Reaches altitude 10° 18:10:06 10° 14° (NNE) 2,414 4.9 -13.6°
Maximum altitude 18:14:59 33° 76° (ENE) 1,370 4.1 -12.6°
Drops below altitude 10° 18:19:57 10° 138° (SE) 2,458 5.0 -11.7°
Sets 18:22:37 0° 147° (SSE) 3,404 5.6 -11.2°
